Regional Weather Roundup
Issued by NWS

Home | Current Version | Previous Version | Text Only | Print | Product List | Glossary Off
Versions: 1 2 3 4 5 6 7 8 9 10 11 12 13 14 15 16 17 18 19 20 21 22 23 24 25 26 27 28 29 30 31 32 33 34 35 36 37 38 39 40 41 42 43 44 45 46 47 48 49 50

000
ASUS43 KLMK 181510
RWRKY
KENTUCKY REGIONAL WEATHER ROUNDUP
NATIONAL WEATHER SERVICE LOUISVILLE KY
1100 AM EDT WED OCT 18 2017

NOTE "FAIR" INDICATES FEW OR NO CLOUDS BELOW 12,000 FEET
WITH NO SIGNIFICANT WEATHER AND/OR OBSTRUCTIONS TO VISIBILITY.

KYZ001>023-026-027-061>063-070>075-181600-
WESTERN AND SOUTH CENTRAL KENTUCKY

CITY           SKY/WX    TMP DP  RH WIND       PRES   REMARKS
PADUCAH        MOSUNNY   61  47  59 SW6       30.28R
HENDERSON      SUNNY     61  48  62 S8        30.30S
OWENSBORO      SUNNY     59  48  67 S8        30.32R
HOPKINSVILLE   SUNNY     60  47  61 S8        30.32R
BOWLING GREEN  SUNNY     60  50  69 VRB6      30.34S
GLASGOW        SUNNY     60  48  64 SW6       30.35R
$$

KYZ024-025-028>034-038-045-046-053-181600-
NORTH CENTRAL KENTUCKY

CITY           SKY/WX    TMP DP  RH WIND       PRES   REMARKS
LOUISVILLE/SDF MOSUNNY   56  47  71 CALM      30.33S
LOUISVILLE/LOU SUNNY     56  48  74 S3        30.33S
FORT KNOX      SUNNY     59  48  67 S5        30.31S
$$

KYZ035>037-039>044-047>052-055>060-089>105-181600-
NORTHEAST KENTUCKY

CITY           SKY/WX    TMP DP  RH WIND       PRES   REMARKS
LEXINGTON      SUNNY     60  47  61 VRB7      30.35R
COVINGTON      SUNNY     60  47  61 S7        30.33S
FRANKFORT      SUNNY     60  45  57 SW7       30.33S
$$

KYZ054-064>069-076>088-106>120-181600-
SOUTHEAST KENTUCKY

CITY           SKY/WX    TMP DP  RH WIND       PRES   REMARKS
JACKSON        SUNNY     55  45  68 CALM      30.36R
LONDON         SUNNY     55  45  68 CALM      30.37R
SOMERSET       SUNNY     52  45  76 CALM      30.38S
MIDDLESBORO    PTSUNNY   44  44 100 CALM      30.40S
MONTICELLO     SUNNY     60  47  61 NW8       30.38R
$$





USA.gov is the U.S. government's official web portal to all federal, state and local government web resources and services.